• Processing (Info)

  • MPEC 2008-S29 : 2008 SP

    The following Minor Planet Electronic Circular may be linked-to from your own Web pages, but must not otherwise be redistributed electronically.

    A form allowing access to any MPEC is at the bottom of this page.


    Read MPEC 2008-S28 Read MPEC 2008-S30


    M.P.E.C. 2008-S29                                Issued 2008 Sept. 22, 17:47 UT
    
         The Minor Planet Electronic Circulars contain information on unusual
             minor planets and routine data on comets.  They are published
       on behalf of Commission 20 of the International Astronomical Union by the
              Minor Planet Center, Smithsonian Astrophysical Observatory,
                              Cambridge, MA 02138, U.S.A.
    
                 Prepared using the Tamkin Foundation Computer Network
    
                                  MPC@CFA.HARVARD.EDU
              URL http://www.cfa.harvard.edu/iau/mpc.html  ISSN 1523-6714
    
                                        2008 SP
    
    Observations:
         K08S00P* C2008 09 21.26878 22 08 11.90 +12 45 55.6          20.7 V ES029G96
         K08S00P  C2008 09 21.27711 22 08 14.20 +12 45 07.6          21.5 V ES029G96
         K08S00P  C2008 09 21.28544 22 08 16.47 +12 44 18.6          21.2 V ES029G96
         K08S00P  C2008 09 21.29380 22 08 18.74 +12 43 30.1          20.3 V ES029G96
         K08S00P  C2008 09 21.32762 22 08 28.01 +12 40 11.3          22.0 V ES029G96
         K08S00P  C2008 09 21.33579 22 08 30.28 +12 39 23.1          21.7 V ES029G96
         K08S00P  C2008 09 21.34392 22 08 32.50 +12 38 36.1          21.6 V ES029G96
         K08S00P  C2008 09 21.35206 22 08 34.75 +12 37 48.6          21.8 V ES029G96
         K08S00P  C2008 09 21.86941 22 11 06.30 +11 47 41.1                 ES029J95
         K08S00P  C2008 09 21.88012 22 11 09.25 +11 46 39.4          20.9 R ES029J95
         K08S00P  C2008 09 22.12183 22 12 19.26 +11 23 40.8          21.2 V ES029G96
         K08S00P  C2008 09 22.13014 22 12 21.52 +11 22 53.9          20.8 V ES029G96
         K08S00P  C2008 09 22.13845 22 12 23.76 +11 22 06.0          21.3 V ES029G96
         K08S00P  C2008 09 22.14677 22 12 26.02 +11 21 17.4          20.3 V ES029G96
    
    Observer details:
    G96 Mt. Lemmon Survey.  Observer R. A. Kowalski.  Measurers E. C. Beshore,
        A. Boattini, G. J. Garradd, A. R. Gibbs, A. D. Grauer, R. E. Hill,
        R. A. Kowalski, S. M. Larson, R. H. McNaught.  1.5-m reflector + CCD.
    J95 Great Shefford.  Observer P. Birtwhistle.  0.40-m f/6.0 Schmidt-Cassegrain
        + CCD.
    
    Orbital elements:
    2008 SP                                                  Earth MOID = 0.1691 AU
    Epoch 2008 Nov. 30.0 TT = JDT 2454800.5                 MPC
    M  48.14746              (2000.0)            P               Q
    n   0.43800051     Peri.  129.45685     +0.72385991     +0.68897961
    a   1.7171951      Node   187.26393     -0.68774429     +0.71631069
    e   0.3601580      Incl.   16.78952     -0.05508747     +0.11048121
    P   2.25           H   23.4           G   0.15           U   8
    Residuals in seconds of arc
    080921 G96  0.0   0.0     080921 G96  0.0   0.9-    080922 G96  0.4-  0.1-
    080921 G96  0.4+  0.6+    080921 G96  0.4-  0.3-    080922 G96  0.2-  0.5+
    080921 G96  0.3+  0.2+    080921 G96  0.4-  0.2-    080922 G96  0.3-  0.0
    080921 G96  0.0   0.6+    080921 J95  0.0   0.1+    080922 G96  0.0   1.0-
    080921 G96  0.3-  0.5-    080921 J95  0.3+  0.1+
    
    Ephemeris:
    2008 SP                  a,e,i = 1.72, 0.36, 17                  q = 1.0987
    Date    TT    R. A. (2000) Decl.     Delta      r     Elong.  Phase     V
    2008 09 21    22 06.90   +13 12.4    0.182    1.165   150.1    25.4    21.2
    2008 09 22    22 11.71   +11 35.7    0.184    1.168   151.2    24.4    21.2
    2008 09 23    22 16.41   +10 00.8    0.186    1.171   152.2    23.5    21.2
    2008 09 24    22 20.99   +08 27.8    0.189    1.175   153.0    22.8    21.2
    2008 09 25    22 25.45   +06 57.2    0.192    1.178   153.7    22.1    21.2
    2008 09 26    22 29.80   +05 29.1    0.195    1.182   154.3    21.6    21.3
    2008 09 27    22 34.05   +04 03.7    0.199    1.185   154.6    21.2    21.3
    2008 09 28    22 38.18   +02 41.3    0.203    1.189   154.9    21.0    21.3
    2008 09 29    22 42.20   +01 21.9    0.207    1.192   154.9    20.9    21.4
    2008 09 30    22 46.11   +00 05.6    0.211    1.196   154.9    20.8    21.4
    2008 10 01    22 49.92   -01 07.4    0.215    1.199   154.7    20.9    21.5
    2008 10 02    22 53.63   -02 17.3    0.220    1.203   154.4    21.0    21.5
    2008 10 03    22 57.24   -03 23.9    0.225    1.207   154.0    21.3    21.6
    2008 10 04    23 00.76   -04 27.3    0.230    1.211   153.6    21.6    21.7
    2008 10 05    23 04.18   -05 27.5    0.235    1.215   153.0    21.9    21.7
    2008 10 06    23 07.51   -06 24.6    0.241    1.219   152.4    22.3    21.8
    2008 10 07    23 10.76   -07 18.7    0.247    1.222   151.8    22.7    21.9
    2008 10 08    23 13.92   -08 09.8    0.253    1.226   151.1    23.2    22.0
    2008 10 09    23 17.00   -08 58.0    0.259    1.231   150.4    23.6    22.0
    2008 10 10    23 20.00   -09 43.4    0.265    1.235   149.7    24.1    22.1
    2008 10 11    23 22.92   -10 26.1    0.271    1.239   148.9    24.6    22.2
    
    Timothy B. Spahr             (C) Copyright 2008 MPC           M.P.E.C. 2008-S29
    

    Read MPEC 2008-S28 Read MPEC 2008-S30


    MPEC number:

    Enter an MPEC number in one of the following forms:

    • 1997-B01 (the full form)
    • J97B01 (the packed version of the full form)
    • B01 (the abbreviated form)